FW5955 Weather Reports


time (UTC)temp
C
wind
direction
speed
KPH
gust
KPH
rain 1hr
cm
rain 24hr
cm
rain mn
cm
humidity
%
barometer
mb
20260507220026 8 246 3.2 8.0 0.00 1.83 1.83 95 1001.8
20260507214529 8 285 3.2 11.3 0.00 1.83 1.83 95 1001.9
20260507213026 8 333 3.2 14.5 0.00 1.83 1.83 95 1001.8
20260507211533 8 262 4.8 12.9 0.00 1.83 1.83 95 1001.8
20260507210024 8 275 8.0 12.9 0.00 1.83 1.83 95 1002.0
20260507204522 8 250 8.0 19.3 0.00 1.83 1.83 95 1002.0
20260507203022 8 268 8.0 16.1 0.00 1.83 1.83 95 1002.0
20260507201512 8 266 8.0 14.5 0.00 1.83 1.83 96 1002.0
20260507200004 8 254 6.4 16.1 0.00 1.83 1.83 96 1002.0
20260507194504 7 226 8.0 19.3 0.00 1.83 1.83 95 1002.1
20260507193005 7 245 11.3 19.3 0.03 1.83 1.83 95 1002.3
20260507191504 7 262 9.7 24.1 0.03 1.83 1.83 96 1002.5
20260507190005 7 240 9.7 17.7 0.05 1.83 1.83 96 1002.3
20260507184502 7 280 6.4 19.3 0.05 1.83 1.83 96 1002.0
20260507183001 7 274 12.9 22.5 0.05 1.80 1.80 96 1002.2
20260507181559 7 262 12.9 22.5 0.15 1.80 1.80 95 1002.0
20260507180106 7 188 4.8 19.3 0.15 1.78 1.78 95 1001.4
20260507174625 7 214 9.7 17.7 0.18 1.75 1.75 96 1002.1
20260507173055 8 229 9.7 17.7 0.23 1.75 1.75 96 1002.4
20260507171605 7 230 9.7 22.5 0.23 1.65 1.65 96 1004.0
20260507170051 7 241 8.0 19.3 0.51 1.65 1.65 96 1003.2
20260507164554 7 236 6.4 17.7 0.76 1.57 1.57 96 1003.1
20260507163050 7 254 8.0 12.9 0.71 1.50 1.50 95 1003.4
20260507161552 7 219 6.4 12.9 0.86 1.40 1.40 96 1003.6
20260507160110 7 314 3.2 19.3 0.58 1.09 1.09 96 1003.8
20260507154547 7 258 14.5 22.5 0.28 0.79 0.79 96 1004.9
20260507153045 7 267 6.4 14.5 0.23 0.76 0.76 96 1004.4
20260507151544 7 245 8.0 20.9 0.03 0.53 0.53 96 1004.7
20260507150044 7 223 12.9 24.1 0.00 0.51 0.51 96 1004.6
20260507144543 7 257 14.5 29.0 0.00 0.51 0.51 96 1004.6
20260507143040 8 241 12.9 24.1 0.00 0.51 0.51 96 1005.1
20260507141538 7 257 11.3 22.5 0.03 0.51 0.51 96 1005.2
20260507140138 7 224 11.3 24.1 0.03 0.51 0.51 96 1005.2
20260507134535 7 252 11.3 22.5 0.03 0.51 0.51 95 1005.8
20260507133034 7 214 11.3 25.7 0.05 0.51 0.51 95 1005.9
20260507131603 7 257 12.9 20.9 0.05 0.51 0.51 95 1006.1
20260507130030 8 226 11.3 25.7 0.05 0.51 0.51 95 1006.2
20260507124531 8 221 12.9 25.7 0.10 0.51 0.51 95 1006.7
20260507123035 8 242 11.3 27.4 0.08 0.46 0.46 95 1006.9
20260507121526 8 233 12.9 25.7 0.08 0.43 0.43 95 1007.0
20260507120031 7 243 12.9 24.1 0.15 0.43 0.43 95 1006.8
20260507114525 7 221 11.3 19.3 0.15 0.41 0.41 95 1007.0
20260507113054 7 254 11.3 24.1 0.13 0.38 0.38 95 1007.3
20260507111525 7 222 8.0 19.3 0.13 0.36 0.36 95 1007.2
20260507110020 7 271 9.7 20.9 0.05 0.28 0.28 95 1007.6
20260507104520 7 239 9.7 20.9 0.05 0.25 0.25 95 1007.5
20260507103018 7 257 9.7 20.9 0.08 0.25 0.25 95 1007.5
20260507101523 7 258 11.3 27.4 0.10 0.23 0.23 94 1007.8
20260507100029 7 248 12.9 29.0 0.15 0.23 0.23 95 1008.2
20260507094514 7 285 14.5 25.7 0.18 0.23 0.23 94 1008.2
20260507093014 7 267 11.3 25.7 0.15 0.18 0.18 94 1008.3
20260507091510 7 250 4.8 17.7 0.08 0.13 0.13 94 1008.1
20260507090008 6 259 8.0 17.7 0.03 0.05 0.05 94 1008.2
20260507084509 6 263 6.4 19.3 0.05 0.05 0.05 93 1008.4
20260507083010 6 228 4.8 16.1 0.05 0.05 0.05 93 1008.5
20260507081600 6 185 8.0 22.5 0.05 0.05 0.05 93 1009.0
20260507080057 6 212 8.0 17.7 0.05 0.05 0.05 93 1009.2
20260507074557 6 235 4.8 12.9 0.00 0.00 0.00 92 1009.3
20260507073058 7 278 4.8 12.9 0.00 0.00 0.00 91 1009.7
20260507071552 7 260 8.0 16.1 0.00 0.00 0.00 91 1009.9
20260507070105 7 167 6.4 16.1 0.00 0.00 0.00 91 1009.9
20260507064553 7 232 9.7 17.7 0.00 0.00 0.00 91 1010.0
20260507063054 7 272 6.4 19.3 0.00 0.00 0.00 91 1010.1
20260507061547 7 243 11.3 19.3 0.00 0.00 0.00 92 1010.8
20260507060047 7 265 9.7 20.9 0.00 0.00 0.00 92 1010.7
20260507054544 7 232 8.0 17.7 0.00 0.00 0.00 92 1010.9
20260507053039 7 250 6.4 16.1 0.00 0.00 0.00 92 1011.5
20260507051535 7 219 8.0 17.7 0.00 0.00 0.00 91 1012.0
20260507050057 7 265 9.7 20.9 0.00 0.00 0.00 91 1012.5
20260507044536 7 205 8.0 20.9 0.00 0.00 0.00 91 1012.7
20260507043027 7 262 11.3 22.5 0.00 0.00 0.00 91 1013.0
20260507041526 7 285 9.7 17.7 0.00 0.00 0.00 92 1013.1
20260507040023 7 244 6.4 25.7 0.00 0.00 0.00 90 1013.4
20260507034522 7 271 6.4 14.5 0.00 0.00 0.00 91 1013.5
20260507033021 7 227 6.4 14.5 0.00 0.00 0.00 90 1013.6
20260507031511 8 225 6.4 16.1 0.00 0.00 0.00 90 1014.1
20260507030009 8 123 9.7 19.3 0.00 0.00 0.00 89 1014.2
20260507024506 8 219 11.3 20.9 0.00 0.00 0.00 88 1014.6
20260507023003 8 219 8.0 22.5 0.00 0.00 0.00 89 1015.1
20260507021613 8 242 8.0 22.5 0.00 0.00 0.00 90 1015.4
20260507020058 8 249 6.4 14.5 0.00 0.00 0.00 90 1015.6
20260507014559 8 252 6.4 17.7 0.00 0.00 0.00 91 1015.8
20260507013054 7 226 8.0 14.5 0.00 0.00 0.00 91 1016.0
20260507011557 7 242 9.7 19.3 0.00 0.00 0.00 91 1016.1
20260507010052 7 223 6.4 14.5 0.00 0.00 0.00 91 1016.3
20260507004551 7 169 4.8 14.5 0.00 0.00 0.00 90 1016.5
20260507003049 8 233 4.8 16.1 0.00 0.00 0.00 88 1016.5
20260507001548 8 235 11.3 20.9 0.00 0.00 0.00 89 1016.6
20260507000048 8 209 8.0 16.1 0.00 0.00 0.00 89 1016.6
20260506234604 8 224 8.0 17.7 0.00 0.00 0.00 88 1016.4
20260506233048 8 248 9.7 16.1 0.00 0.00 0.00 88 1016.3
20260506231547 8 243 8.0 17.7 0.00 0.00 0.00 88 1016.4
20260506230046 8 273 12.9 20.9 0.00 0.00 0.00 87 1016.5
20260506224548 9 219 11.3 17.7 0.00 0.00 0.00 86 1016.6
20260506223050 8 250 12.9 24.1 0.00 0.00 0.00 86 1016.7
20260506221544 8 230 12.9 20.9 0.00 0.00 0.00 86 1016.8